GFSSW_prec_cloud_297.txt.gz
Cloud_Cover
14 12 63 100 100 100 100 100 45 5 0 0 5 5 19 78 5 5 5 6 18 6 26 100 80 100 100 100 67 48 82 97 25 1 79 98 34 90 80 0 0 0 0 0 100
3 0 43 100 100 100 100 100 71 1 1 18 4 3 5 77 5 7 97 5 5 5 5 2 77 98 82 100 100 17 21 100 91 1 74 36 0 19 35 80 100 0 0 19 7
0 0 40 98 100 100 100 100 47 18 0 16 0 0 70 100 100 73 20 5 5 4 17 76 89 100 100 14 93 88 100 91 30 30 16 5 6 0 43 9 5 0 0 0 0
0 0 37 86 100 100 100 100 100 63 22 26 0 0 4 99 100 94 99 5 5 26 77 100 100 100 100 100 42 38 58 16 54 92 2 3 4 16 0 0 0 0 0 0 0
0 0 74 100 100 100 100 100 100 32 21 17 0 0 0 5 72 100 68 5 5 5 100 100 100 100 75 97 100 100 45 53 95 65 12 100 66 100 9 0 0 0 0 0 0
0 1 94 100 100 100 100 100 34 24 22 4 0 13 0 5 5 100 48 5 4 24 100 100 100 100 100 99 100 100 92 22 0 41 90 25 86 99 84 0 0 2 0 5 18
0 2 100 100 100 100 100 23 24 0 0 0 0 0 0 0 61 48 100 15 0 4 100 100 100 100 100 100 100 100 100 11 27 40 32 52 57 58 7 1 0 0 30 50 46
0 17 100 100 100 100 98 37 56 5 0 0 0 0 0 0 86 25 97 17 4 4 3 83 96 81 100 100 100 100 100 88 100 90 77 24 23 8 5 33 5 3 27 100 100
23 58 100 100 100 100 47 10 15 6 5 0 0 0 0 0 11 100 98 100 74 15 23 44 77 92 100 100 100 100 100 100 100 100 92 90 25 0 4 5 5 9 98 100 6
65 100 100 100 100 100 52 0 0 0 0 0 0 0 0 0 0 68 100 99 100 97 88 95 100 73 100 100 100 100 100 100 100 100 100 100 63 4 1 29 16 18 57 2 3
100 100 100 100 100 100 16 0 0 0 0 0 0 0 0 0 0 0 100 100 100 100 100 98 98 55 26 100 100 100 100 100 100 100 100 100 100 100 100 100 100 100 99 76 11
100 100 100 100 100 91 59 0 0 0 0 0 0 0 0 0 0 0 0 47 46 92 100 99 80 90 100 89 100 100 100 100 100 100 100 100 100 100 100 100 100 100 100 100 100
100 100 100 100 52 6 0 0 0 0 0 0 0 0 0 0 0 0 0 0 0 0 49 100 100 100 98 82 100 100 100 100 100 100 100 100 100 100 100 100 100 100 99 100 100
100 100 100 97 7 0 0 0 0 0 0 0 0 0 0 0 0 0 0 0 0 0 2 34 100 100 100 90 59 98 100 92 100 100 100 100 100 100 100 100 100 81 100 100 97
100 100 100 99 3 0 0 0 0 0 0 0 0 0 0 0 0 0 0 0 0 0 5 0 32 100 100 99 100 100 100 92 96 67 100 66 47 81 100 100 100 100 96 100 100
100 100 97 0 0 0 0 0 0 0 0 0 0 0 0 0 0 0 0 0 0 0 0 0 5 95 98 69 14 4 13 2 27 96 100 95 71 63 100 100 100 99 94 100 100
49 84 95 0 0 0 0 0 0 0 0 0 0 0 0 0 0 0 0 0 0 0 0 0 0 2 3 2 1 0 0 0 0 0 18 99 44 71 100 100 100 100 75 100 100
6 55 0 0 0 0 0 0 0 0 0 0 0 0 0 0 0 0 0 0 0 0 0 0 0 0 0 0 0 0 2 28 2 22 92 71 76 50 80 40 63 100 100 100 100
12 0 0 0 0 0 0 0 0 0 0 0 0 0 0 0 0 0 0 0 0 0 0 0 0 0 0 0 0 0 0 1 0 0 91 100 18 5 92 77 42 5 78 100 100
0 0 0 0 0 0 0 0 0 0 0 0 0 0 0 0 0 0 0 0 0 0 0 0 0 0 0 0 0 0 1 4 4 4 86 99 18 5 67 2 4 3 3 39 90
0 0 0 0 0 0 0 0 0 0 0 0 0 0 0 0 0 0 0 0 0 0 0 0 0 0 0 0 0 2 5 0 0 2 13 79 100 72 2 7 91 97 89 89 92
0 0 0 0 0 0 0 0 0 0 0 0 0 0 0 0 0 0 0 0 0 0 0 0 0 0 0 0 0 0 0 4 2 5 36 5 28 11 85 98 61 100 100 100 97
0 0 0 0 0 0 0 0 0 1 0 0 5 1 0 4 1 4 5 7 5 4 4 0 0 0 2 16 5 0 0 0 0 0 0 35 95 9 79 100 100 100 100 100 98
0 0 0 1 3 5 5 5 74 5 5 1 0 5 4 0 0 1 6 78 51 5 31 4 1 0 10 100 100 12 23 71 2 0 9 4 46 60 33 100 100 100 100 100 98
0 0 4 1 41 35 21 94 21 65 5 20 8 5 27 75 3 6 25 100 99 4 5 5 0 0 6 100 100 100 27 26 10 5 91 100 96 1 0 0 26 69 100 100 100
5 4 5 5 16 100 100 100 99 93 41 54 25 11 12 6 93 100 100 100 90 6 5 2 0 5 5 100 5 88 100 91 99 100 100 100 52 5 9 100 100 54 99 32 81
0 5 5 5 5 19 72 98 100 100 43 100 51 5 30 70 100 80 10 1 0 0 68 4 3 2 1 6 9 100 98 24 82 95 99 5 25 28 100 100 93 100 15 31 85

GFSSW_prec_cloud_303.txt.gz
Cloud_Cover
13 30 100 100 97 54 100 100 100 100 100 100 94 19 49 81 32 95 50 100 100 100 100 100 100 76 78 37 8 4 5 3 5 55 2 51 71 96 6 5 5 5 5 4 5
15 26 100 100 100 94 100 100 100 100 100 100 27 22 30 97 27 66 42 100 100 90 100 100 100 100 88 46 19 5 11 11 5 1 8 36 21 12 5 5 5 5 5 5 5
24 38 100 100 100 100 100 100 100 100 100 97 22 6 5 39 94 62 100 100 100 100 100 100 100 100 100 100 92 64 100 5 3 12 4 32 5 2 1 1 1 4 5 5 1
50 82 100 100 100 100 100 100 100 100 43 26 18 5 5 5 90 100 100 100 100 100 100 100 100 100 100 98 18 32 7 12 47 10 6 2 1 1 0 20 1 0 0 0 0
100 100 100 100 100 100 100 100 100 100 94 25 15 5 64 4 68 70 98 100 79 98 100 100 100 100 100 87 18 94 65 46 15 42 4 5 4 5 1 0 0 0 0 0 0
100 100 100 100 100 100 100 100 100 100 54 22 6 5 5 36 11 92 76 100 100 100 100 100 100 100 100 85 95 99 54 12 2 24 5 6 3 0 1 0 0 2 0 0 0
100 100 100 100 100 100 100 100 100 100 25 7 5 5 5 99 89 89 3 100 100 100 100 100 99 100 100 100 100 100 100 100 96 100 100 58 4 0 0 3 0 0 0 0 4
100 100 100 100 100 100 100 100 96 14 0 0 5 3 5 5 48 33 27 34 100 100 100 98 45 99 100 100 69 99 100 100 100 65 97 87 99 42 6 0 0 0 0 4 6
100 100 100 100 100 100 100 100 8 0 0 0 4 3 4 5 6 5 74 100 69 56 100 100 100 100 100 96 100 18 93 100 100 99 97 14 42 100 38 2 0 1 0 45 99
100 100 100 100 100 100 80 89 5 5 2 0 0 2 3 10 54 5 28 73 100 80 93 100 100 100 100 100 100 98 100 100 100 100 82 20 28 37 50 8 0 5 43 43 24
100 100 100 100 100 100 18 0 32 32 9 0 0 0 0 0 0 7 60 23 38 84 100 100 100 100 100 100 100 100 100 100 100 100 100 100 66 69 7 5 5 6 66 7 51
82 17 100 100 100 100 52 0 0 3 87 5 0 0 0 0 2 4 6 12 70 100 76 60 79 100 40 92 100 100 100 100 100 100 100 91 71 32 100 31 96 91 100 58 95
4 69 100 100 24 34 0 0 0 0 0 2 19 1 0 0 0 4 5 97 100 96 100 100 98 100 91 92 100 100 100 100 100 100 100 100 52 100 97 100 100 99 90 100 78
50 100 100 100 0 0 0 0 0 0 0 0 0 0 0 0 0 0 51 97 27 98 100 100 100 100 99 100 100 100 100 100 97 93 100 100 98 70 81 89 100 100 100 100 100
32 100 100 97 0 0 0 0 0 0 0 0 0 0 0 0 0 0 0 3 5 5 77 100 100 94 99 33 19 99 99 88 100 98 97 100 100 100 100 100 72 100 100 100 100
26 94 99 30 2 0 0 0 0 0 0 0 0 0 0 0 0 0 0 0 0 1 2 43 84 55 100 100 93 58 96 100 100 100 99 90 100 100 100 100 100 100 41 94 100
40 59 92 0 0 0 0 0 0 0 0 0 0 0 0 0 0 0 0 0 0 0 0 8 22 32 73 100 100 96 81 100 100 100 100 97 100 100 100 100 100 100 100 100 100
27 1 9 0 0 0 0 0 0 0 0 0 0 0 0 0 0 0 0 0 0 0 0 0 2 39 49 93 100 100 99 100 100 100 100 16 100 100 100 100 100 100 100 100 100
0 0 0 0 0 0 0 0 0 0 0 0 0 0 0 0 0 0 0 0 0 0 0 0 0 0 39 100 36 94 96 13 2 0 47 100 100 100 100 100 100 100 100 100 100
0 0 0 0 0 0 0 0 0 0 0 0 0 0 0 0 0 0 0 0 0 0 0 0 0 0 0 24 69 38 0 0 0 0 0 2 76 100 100 100 100 100 100 100 100
0 0 0 0 0 0 0 0 0 0 0 0 0 0 0 0 0 0 0 0 0 0 0 0 0 0 0 0 80 0 0 0 0 0 0 3 0 88 48 100 100 100 100 100 100
0 0 0 0 0 0 0 0 0 0 0 0 0 0 0 0 0 0 0 0 0 0 0 0 0 0 5 0 0 0 0 0 3 0 0 7 1 100 100 100 100 100 100 100 100
0 0 0 0 0 0 0 0 0 0 0 0 0 0 0 0 0 4 5 5 4 4 5 2 1 2 5 5 10 0 4 3 1 5 0 0 12 100 100 100 81 92 65 42 92
0 0 0 0 0 0 0 0 3 5 5 5 5 5 34 83 34 2 5 5 2 4 4 5 5 5 5 5 12 5 3 3 26 4 1 0 81 100 100 100 100 100 100 100 99
0 0 0 0 0 0 0 0 0 1 0 0 5 81 100 100 78 5 100 95 89 5 4 5 5 4 0 0 0 0 5 9 5 5 4 3 5 88 100 100 94 100 100 58 31
0 0 0 0 0 0 2 5 5 5 5 6 29 16 5 2 5 99 100 98 84 30 5 1 83 63 69 5 3 0 0 1 5 19 6 7 79 97 100 100 100 100 35 6 27
0 0 0 0 0 0 0 4 5 5 5 5 5 1 34 84 21 56 100 97 100 8 5 37 5 6 29 15 5 4 6 7 10 5 25 69 99 100 100 100 100 100 100 100 100

GFSSW_prec_cloud_306.txt.gz
Cloud_Cover
17 32 100 100 100 100 100 100 100 14 94 98 96 31 10 6 29 3 0 4 20 84 100 100 100 100 81 96 80 10 4 12 48 40 79 20 53 5 5 3 3 5 5 4 9
80 98 100 100 100 100 100 100 100 40 92 36 43 27 5 69 45 37 20 5 64 27 100 100 100 100 92 30 12 5 37 68 23 5 9 5 10 5 4 3 4 5 5 5 5
100 100 100 100 100 100 100 100 100 70 64 29 36 27 5 57 100 54 5 94 95 35 21 73 100 100 100 100 5 30 4 6 78 3 5 4 0 0 0 0 2 0 15 5 5
100 100 100 100 100 100 100 100 100 100 100 74 31 17 2 70 100 100 46 96 100 98 100 100 100 100 100 90 80 5 2 16 8 5 23 8 1 0 1 2 4 0 0 0 0
100 100 100 100 100 100 100 100 100 100 100 74 26 11 1 30 96 100 100 100 100 88 94 98 100 87 77 57 10 18 8 5 3 5 3 2 2 0 0 0 0 0 0 0 0
100 100 100 100 100 100 100 100 100 100 100 33 15 5 2 76 26 87 100 91 100 100 98 96 100 78 55 44 15 6 0 5 4 22 3 2 1 5 0 0 0 0 0 0 0
100 100 100 100 100 100 100 100 100 100 93 25 0 5 5 3 77 21 93 100 100 100 63 78 85 100 100 98 26 43 88 100 8 37 99 80 8 0 4 0 0 0 0 5 5
100 100 100 100 100 100 100 100 92 24 8 0 0 2 5 1 3 5 5 100 100 92 31 99 20 100 97 93 17 94 100 70 100 8 5 77 25 5 30 76 46 1 0 16 100
100 100 100 100 100 100 100 62 1 0 0 0 2 0 3 5 4 82 3 61 100 100 98 94 80 100 100 94 95 100 99 52 94 100 8 2 2 5 7 8 31 63 26 6 49
100 100 100 100 100 100 87 50 0 0 0 0 1 0 0 5 5 4 90 65 95 70 100 65 97 100 100 96 100 85 93 12 97 100 96 5 4 0 4 5 18 91 89 82 91
0 63 100 100 100 100 15 100 64 5 0 1 2 0 0 0 5 4 4 5 80 100 5 86 97 90 100 96 99 97 100 100 100 73 100 100 97 79 90 44 11 64 87 92 100
46 100 100 100 100 100 20 0 32 0 4 3 5 5 0 0 0 0 3 5 5 48 99 100 89 48 100 100 100 100 100 98 100 95 62 25 96 35 61 97 90 100 100 100 100
54 100 100 100 17 32 0 0 0 0 0 0 1 5 5 1 0 0 1 5 12 40 88 91 79 80 95 83 64 86 100 100 100 100 100 86 100 71 92 100 100 100 100 100 100
55 100 100 100 0 0 0 0 0 0 0 0 0 0 0 0 0 3 6 2 2 61 100 88 6 48 55 100 100 94 48 100 100 99 100 100 100 79 100 100 100 100 100 100 100
67 100 100 100 1 0 0 0 0 0 0 0 0 0 0 2 2 0 22 98 5 14 51 50 58 33 87 74 80 100 100 100 100 100 100 100 100 100 100 100 98 100 100 100 100
85 100 99 34 4 0 0 0 0 0 0 0 0 0 0 0 0 0 35 5 82 59 5 40 100 58 8 74 42 100 100 100 100 100 100 100 100 100 100 100 100 100 100 100 96
100 100 91 0 0 0 0 0 0 0 0 0 0 0 0 0 0 0 0 0 7 3 5 5 5 4 8 88 78 98 98 96 100 100 82 74 100 100 100 100 100 100 100 100 100
98 2 15 0 0 0 0 0 0 0 0 0 0 0 0 0 0 0 0 0 0 0 0 0 0 4 38 0 5 10 94 97 30 63 100 73 51 100 100 100 100 100 100 100 100
4 0 0 0 0 0 0 0 0 0 0 0 0 0 0 0 0 0 0 0 0 0 0 0 0 0 2 95 70 11 5 5 0 2 100 100 31 100 100 100 100 100 100 100 100
0 0 0 0 0 0 0 0 0 0 0 0 0 0 0 0 0 0 0 0 0 0 0 0 0 0 0 48 64 5 46 12 5 0 1 94 100 100 100 100 100 100 100 100 100
0 0 0 0 0 0 0 0 0 0 0 0 0 0 0 0 0 0 0 0 0 0 0 0 0 0 0 0 0 1 1 4 2 0 0 0 37 100 100 100 100 100 100 100 100
0 0 0 0 0 0 0 0 0 0 0 0 0 0 0 0 0 0 3 2 2 0 0 0 0 0 0 0 0 0 0 1 5 2 0 0 0 41 100 100 100 100 100 100 98
0 0 0 0 0 0 0 0 0 0 1 0 1 1 1 3 3 5 1 0 0 5 5 0 0 5 99 40 4 5 3 1 0 0 0 0 0 78 71 100 100 100 100 100 100
0 0 0 0 0 0 0 0 0 0 0 5 5 99 100 86 44 5 5 5 4 5 2 1 4 3 5 46 72 71 94 92 88 18 4 0 2 66 100 100 100 100 100 100 100
0 0 0 0 0 0 0 0 0 0 4 3 3 5 42 100 100 100 71 54 41 83 100 54 5 5 85 100 20 72 69 60 100 96 60 5 3 13 40 82 100 100 100 100 100
0 0 0 0 0 0 0 0 0 0 5 5 5 46 100 100 97 81 98 100 100 100 100 99 7 3 5 73 87 6 5 5 5 5 54 27 29 1 25 100 100 100 100 66 13
0 0 0 0 0 0 0 0 0 3 4 5 53 67 12 12 4 16 97 95 70 50 80 97 89 61 100 88 6 25 82 11 2 1 9 60 83 52 49 100 92 100 97 79 22

GFSSW_prec_cloud_312.txt.gz
Cloud_Cover
100 100 100 100 100 100 92 60 100 100 30 30 20 5 5 0 1 0 5 15 5 40 21 17 68 8 10 39 47 8 100 100 100 100 5 5 0 0 0 0 0 0 0 0 2
100 100 100 100 100 100 100 100 100 100 100 100 31 5 5 6 0 0 5 5 44 86 31 77 56 94 5 64 9 5 100 100 33 5 5 5 29 0 0 0 0 0 0 0 0
100 100 100 100 100 100 100 100 100 100 100 98 31 9 5 48 2 0 0 5 5 5 7 61 43 5 46 5 5 1 100 5 5 5 0 0 4 0 0 0 0 0 0 0 0
100 100 100 100 100 100 100 100 100 100 98 60 45 4 4 5 12 0 0 5 5 5 19 34 100 19 24 4 0 59 0 0 5 5 0 0 0 0 0 0 0 0 0 3 5
100 100 100 100 100 100 100 100 100 100 88 76 15 0 10 24 16 2 0 5 15 58 59 100 100 84 16 6 5 0 0 0 0 0 0 0 0 0 0 0 0 4 1 3 0
100 100 100 100 100 100 100 100 100 98 99 27 10 36 13 22 83 21 1 4 5 18 84 71 70 50 30 39 42 1 0 0 3 2 0 0 0 0 0 4 6 56 25 5 0
39 100 100 100 100 100 100 100 41 10 2 3 5 7 95 95 46 5 75 7 26 85 98 96 35 58 71 11 12 5 1 0 0 5 5 5 3 5 2 6 28 55 100 36 5
15 100 100 100 100 100 99 20 20 2 0 0 6 0 5 7 82 36 99 100 100 97 100 98 84 5 8 5 5 36 44 25 2 5 5 8 78 1 1 9 74 1 5 58 70
61 100 100 100 100 100 9 0 0 0 0 0 4 0 0 5 5 100 89 100 100 100 100 100 79 23 5 5 17 7 83 11 4 5 5 41 75 26 5 3 0 2 5 5 49
47 100 100 100 100 68 1 11 9 18 0 0 0 0 0 0 17 38 99 100 100 100 100 55 54 92 30 16 88 99 57 31 33 39 5 6 30 37 84 5 2 5 39 4 50
73 100 100 100 100 26 13 0 2 0 0 0 0 0 0 0 5 66 7 100 100 100 100 100 100 100 66 100 34 52 84 98 68 94 95 60 19 61 5 5 5 29 93 7 5
100 100 100 100 83 0 81 1 4 0 0 0 0 0 0 3 0 5 5 64 100 100 100 100 100 30 96 67 89 66 72 97 72 45 52 98 100 98 53 30 5 5 4 4 5
100 100 100 100 1 33 0 0 28 19 0 0 0 1 2 0 5 5 1 5 5 52 100 100 100 100 100 100 98 100 100 100 100 91 100 98 99 85 93 100 98 75 16 7 5
100 100 100 35 53 0 0 0 0 1 0 1 2 4 5 5 2 5 36 5 5 73 6 84 96 100 100 100 99 100 78 100 100 100 100 100 100 100 100 84 79 78 98 93 41
100 100 100 84 0 0 0 0 0 0 0 0 0 0 0 0 0 0 5 5 54 16 43 78 22 22 43 98 100 100 100 100 98 100 99 95 98 100 100 100 100 100 90 87 75
100 100 84 29 0 0 0 0 0 0 0 0 0 0 0 0 0 0 0 2 11 70 48 84 38 9 28 6 5 4 42 93 100 100 45 94 98 100 100 100 100 100 100 100 100
100 100 31 0 0 0 0 0 0 0 0 0 0 0 0 0 0 0 0 0 0 8 40 51 28 89 30 5 5 14 3 86 86 62 95 78 100 99 100 100 100 100 100 100 100
32 29 2 0 0 0 0 0 0 0 0 0 0 0 0 0 0 0 0 0 0 51 58 75 85 99 15 6 82 11 76 95 99 100 100 3 1 10 90 100 96 100 100 100 100
37 0 0 0 0 0 0 0 0 0 0 0 0 0 0 0 0 0 0 0 3 2 4 5 0 64 4 4 4 5 0 10 96 97 37 6 8 5 0 0 43 100 40 9 80
0 0 0 0 0 0 0 0 0 0 0 0 0 0 0 0 0 0 0 0 0 0 0 0 0 0 0 0 0 0 3 4 41 41 62 100 88 15 1 1 0 0 11 76 97
0 0 0 0 0 0 0 0 0 0 0 0 0 0 0 0 0 0 0 0 0 0 0 0 0 0 0 0 0 0 0 0 0 0 6 3 21 96 52 0 0 0 80 97 88
0 0 0 0 0 0 0 0 0 0 0 0 0 0 0 0 0 0 0 0 0 0 0 0 0 0 0 0 0 0 0 0 0 0 2 0 1 0 0 0 0 39 100 100 100
0 0 0 0 0 0 0 0 0 0 0 0 0 0 0 3 5 5 27 31 6 8 1 0 0 3 18 4 3 0 0 0 0 0 0 0 27 0 0 0 11 98 100 100 100
0 0 0 0 0 0 0 0 0 0 0 0 0 0 3 5 20 5 41 39 100 100 91 54 56 5 92 100 12 5 19 19 17 5 4 24 87 0 1 0 95 90 100 100 100
0 0 0 0 0 0 0 0 0 0 0 0 0 0 1 10 83 80 52 33 88 83 80 68 38 42 92 100 100 99 95 92 100 100 54 93 5 2 5 4 82 63 100 16 19
0 0 0 0 0 0 0 0 0 0 0 0 0 0 0 3 5 84 75 43 5 2 5 15 62 75 98 100 100 100 99 93 98 100 100 100 82 4 1 43 74 100 100 86 64
0 0 0 0 0 0 0 0 0 0 0 0 0 0 2 5 5 5 57 73 67 95 98 85 74 7 6 36 83 73 96 100 100 100 88 14 19 94 100 100 98 52 79 40 28